World > North America > United States > New Jersey > Old Tappan  

Old Tappan, NJ Hourly Weather Updates

Feedback E-mail the Weather

Quick Clicks

Old Tappan, NJ Weather Maps

°F °C°F °C
Old Tappan Weather Map
UTC Time: 4/13/2024, 00:03
Your Time:

Old Tappan, NJ Regional Weather

Expires:202404130000;;639975
ASUS41 KOKX 122310
RWROKX

Regional Weather Roundup
National Weather Service New York NY
700 PM EDT FRI APR 12 2024

Note: "FAIR" indicates few or no clouds below 12,000 feet with no
significant weather and/or obstructions to visibility.


NJZ001-105-106-008-010-013-015-019>022-104-130000-
New Jersey
  
CITY           SKY/WX    TMP DP  RH WIND       PRES   REMARKS
Newark/Liberty PTCLDY    63  39  41 SW22G38   29.45R                  
Teterboro      PTCLDY    61  40  45 W17G37    29.44R                  
Caldwell       PTCLDY    62  39  42 MISG      29.45R                  
Somerville     PTCLDY    62  42  47 VRB6      29.45R                  
Linden         PTCLDY    63  38  39 W12G21    29.47R                  
Perth Amboy      N/A     63 N/A N/A W18         N/A                   
Sussex         MOCLDY    58  42  55 SW10G20   29.43R                  
Andover          N/A     57  41  55 VRB7G25   29.44R                  
Trenton        LGT RAIN  61  41  47 W20G35    29.50R                  
Millville      PTCLDY    64  41  42 SW8G22    29.53R                  
Atlantic City  NOT AVBL                                               
Wrightstown    LGT RAIN  63  44  50 W12G21    29.48R                  
Toms River     PTCLDY    63  41  44 SW14      29.50R                  
Belmar         PTCLDY    64  41  42 SW8       29.49R                  
$$
 

SKY/WX - Weather  TMP - Temperature  DP - Dew Point  RH - Humidity
WIND - Wind Direction/Speed PRES - Barometric Pressure VSB - Visibility
WCI - Wind Chill Index E13G22 Wind - East Wind 13 mph/Gusts of 22 mph

Trending Headlines

Trending Entertainment Headlines

Old Tappan Radar Loop

Use the map search tool if you want to place a location marker on the radar map...

Old Tappan Quick Facts

National Two Day Weather Forecast


E-mail the Old Tappan Weather Forecast

Voice your opinion or tell us about page issues...